Concordia, KS

2:50 PM CST on February 13, 2016 (GMT -0600)
Blosser Municipal

Weather History for KCNK - July, 2013

Change the Weather History Date:

Tuesday, July 23, 2013

  Actual Average Record
Temperature  
Mean Temperature 74 °F 79 °F  
Max Temperature 83 °F 91 °F 106 °F (1910)
Min Temperature 65 °F 68 °F 52 °F (1904)
Degree Days  
Heating Degree Days 0 0  
Month to date heating degree days 0 0  
Since 1 June heating degree days 15 13  
Since 1 July heating degree days 0 0  
Cooling Degree Days 9 14  
Month to date cooling degree days 316 318  
Year to date cooling degree days 715 672  
Since 1 June cooling degree days 612 583  
Growing Degree Days 24 (Base 50)    
Moisture  
Dew Point 64 °F    
Average Humidity 76    
Maximum Humidity 93    
Minimum Humidity 58    
Precipitation  
Precipitation 0.11 in 0.11 in 4.16 in (1889)
Month to date precipitation 1.23 3.05  
Year to date precipitation 13.90 17.09  
Snow  
Snow 0.00 in 0.00 in 0.00 in ()
Month to date snowfall 0.0 0.0  
Year to date snowfall 20.3 13.7  
Since 1 July snowfall 0.0 0.0  
Snow Depth 0.00 in    
Sea Level Pressure  
Sea Level Pressure 29.89 in    
Wind  
Wind Speed 8 mph (NE)    
Max Wind Speed 28 mph    
Max Gust Speed 37 mph    
Visibility 10 miles    
Events Rain , Thunderstorm    
T = Trace of Precipitation, MM = Missing Value Source: NWS Daily Summary

Daily Weather History Graph

Daily Weather History Graph

Search for Another Location

Airport or City:

Trip Planner

Search our weather history database for the weather conditions in past years. The results will help you decide how hot, cold, wet, or windy it might be!

Date:

Astronomy

Jul. 23, 2013 Rise Set
Actual Time 6:22 AM CDT 8:51 PM CDT
Civil Twilight 5:51 AM CDT 9:22 PM CDT
Nautical Twilight 5:13 AM CDT 10:00 PM CDT
Astronomical Twilight 4:30 AM CDT 10:42 PM CDT
Moon 9:21 PM CDT (7/23) 7:32 AM CDT (7/23)
Length of Visible Light 15h 30m
Length of Day
14h 28m
Full, 99% of the Moon is Illuminated
Jul 23
Full
Jul 29
Last Quarter
Aug 6
New
Aug 14
First Quarter
Aug 20
Full

Hourly Weather History & Observations

Time (CDT) Temp. Heat Index Dew Point Humidity Pressure Visibility Wind Dir Wind Speed Gust Speed Precip Events Conditions
12:55 AM 75.9 °F - 66.9 °F 74% 29.81 in 10.0 mi WSW 8.1 mph - N/A   Clear
1:55 AM 72.0 °F - 66.9 °F 84% 29.82 in 10.0 mi NNW 4.6 mph - N/A   Clear
2:55 AM 71.1 °F - 64.9 °F 81% 29.81 in 10.0 mi NNW 3.5 mph - N/A   Clear
3:55 AM 70.0 °F - 66.0 °F 87% 29.79 in 10.0 mi Calm Calm - N/A   Clear
4:55 AM 66.9 °F - 64.9 °F 93% 29.81 in 10.0 mi Calm Calm - N/A   Clear
5:55 AM 66.9 °F - 64.9 °F 93% 29.82 in 10.0 mi North 3.5 mph - N/A   Clear
6:55 AM 70.0 °F - 61.0 °F 73% 29.89 in 10.0 mi NNE 16.1 mph 28.8 mph N/A   Clear
7:37 AM 69.8 °F - 60.8 °F 73% 30.01 in 10.0 mi NNW 15.0 mph 21.9 mph 0.00 in Rain , Thunderstorm Light Thunderstorms and Rain
7:55 AM 66.9 °F - 61.0 °F 81% 29.88 in 9.0 mi East 11.5 mph - 0.01 in Rain , Thunderstorm Light Rain
8:04 AM 66.2 °F - 60.8 °F 83% 29.93 in 10.0 mi East 10.4 mph 20.7 mph 0.00 in Rain Light Rain
8:19 AM 66.2 °F - 60.8 °F 83% 29.98 in 10.0 mi Variable 4.6 mph 25.3 mph 0.00 in Thunderstorm Scattered Clouds
8:52 AM 66.2 °F - 62.6 °F 88% 29.95 in 10.0 mi East 3.5 mph - 0.03 in   Mostly Cloudy
8:55 AM 66.9 °F - 62.1 °F 84% 29.91 in 10.0 mi East 4.6 mph - 0.03 in   Mostly Cloudy
9:06 AM 68.0 °F - 62.6 °F 83% 29.94 in 10.0 mi East 6.9 mph - N/A Thunderstorm Scattered Clouds
9:52 AM 66.2 °F - 60.8 °F 83% 30.01 in 6.0 mi NNE 17.3 mph 23.0 mph 0.01 in Rain , Thunderstorm Thunderstorms and Rain
9:55 AM 66.0 °F - 61.0 °F 84% 29.96 in 4.0 mi NE 15.0 mph 23.0 mph 0.03 in Rain , Thunderstorm Heavy Thunderstorms and Rain
10:32 AM 68.0 °F - 64.4 °F 88% 29.92 in 10.0 mi East 13.8 mph 23.0 mph 0.04 in   Scattered Clouds
10:55 AM 71.1 °F - 64.9 °F 81% 29.88 in 10.0 mi ENE 13.8 mph 21.9 mph 0.04 in   Clear
11:55 AM 73.9 °F - 64.9 °F 73% 29.88 in 10.0 mi NE 10.4 mph 18.4 mph N/A   Clear
12:37 PM 77.0 °F - 64.4 °F 65% 29.92 in 10.0 mi ESE 6.9 mph - N/A Thunderstorm Scattered Clouds
12:55 PM 77.0 °F - 64.9 °F 66% 29.88 in 10.0 mi SSE 10.4 mph - N/A Thunderstorm Thunderstorm
1:55 PM 79.0 °F - 62.1 °F 56% 29.88 in 10.0 mi Variable 4.6 mph - N/A   Clear
2:55 PM 78.1 °F - 64.9 °F 64% 29.88 in 10.0 mi ENE 5.8 mph - N/A   Clear
3:55 PM 80.1 °F 82.1 °F 66.0 °F 62% 29.88 in 10.0 mi East 6.9 mph - N/A   Clear
4:55 PM 81.0 °F 84.4 °F 70.0 °F 69% 29.89 in 10.0 mi NE 10.4 mph - N/A   Clear
5:55 PM 82.9 °F 85.0 °F 66.0 °F 56% 29.87 in 10.0 mi NE 12.7 mph - N/A   Clear
6:55 PM 80.1 °F 82.3 °F 66.9 °F 64% 29.87 in 10.0 mi NE 13.8 mph 23.0 mph N/A   Clear
7:55 PM 77.0 °F - 64.9 °F 66% 29.89 in 10.0 mi NE 12.7 mph - N/A   Clear
8:55 PM 73.0 °F - 64.9 °F 76% 29.90 in 10.0 mi ENE 6.9 mph - N/A   Clear
9:55 PM 71.1 °F - 64.0 °F 78% 29.94 in 10.0 mi NE 6.9 mph - N/A   Clear
10:55 PM 68.0 °F - 63.0 °F 84% 29.96 in 10.0 mi NNE 6.9 mph - N/A   Clear
11:55 PM 66.9 °F - 63.0 °F 87% 29.96 in 10.0 mi ENE 4.6 mph - N/A   Clear